Location: Berlise
(49.6641°N, 4.1077°E)
Time: 20:00:31
(UTC+00:00)

Cosmos 540 Rocket - Pass Details

Date: 27 January 2021
Orbit: 739 x 754 km, 74.1° (Epoch: 27 February)

Event Time Altitude Azimuth Distance (km) Brightness Sun altitude
Exits shadow 05:01:40 55° 300° (WNW) 900 3.5 -22.7°
Drops below altitude 10° 05:06:41 10° 17° (NNE) 2,277 6.1 -21.9°
Sets 05:09:07 0° 22° (NNE) 3,208 7.0 -21.5°
